Regional Weather Roundup
Issued by NWS

Home | Current Version | Previous Version | Text Only | Print | Product List | Glossary On
Versions: 1 2 3 4 5 6 7 8 9 10 11 12 13 14 15 16 17 18 19 20 21 22 23 24 25 26 27 28 29 30 31 32 33 34 35 36 37 38 39 40 41 42 43 44 45 46 47 48 49 50
000
ASUS44 KOUN 221410
RWROK

WEATHER ROUNDUP FOR OKLAHOMA
NATIONAL WEATHER SERVICE NORMAN OK
900 AM CDT THU JUN 22 2017

NOTE: "FAIR" INDICATES FEW OR NO CLOUDS BELOW 12,000 FEET WITH NO
      SIGNIFICANT WEATHER AND/OR OBSTRUCTIONS TO VISIBILITY.

OKZ001>007-009>012-014-015-017-221500-
NORTHWEST OKLAHOMA AND THE PANHANDLE

CITY           SKY/WX    TMP DP  RH WIND       PRES   REMARKS
GAGE           SUNNY     78  63  59 SW10      29.80F
GUYMON         SUNNY     75  62  64 SW9       29.80S
ENID/WOODRING  MOSUNNY   79  68  69 S9        29.78S
$$

OKZ016-021>023-033>039-044-045-221500-
SOUTHWEST OKLAHOMA

CITY           SKY/WX    TMP DP  RH WIND       PRES   REMARKS
LAWTON/REGL    SUNNY     76  67  73 CALM      29.80R
LAWTON/FT SILL MOSUNNY   75  68  79 CALM      29.78S
FREDERICK      SUNNY     77  65  66 SE3       29.77S
CLINTON        SUNNY     77  61  57 S15       29.83R
HOBART         SUNNY     78  63  59 S10       29.81F
ALTUS AFB      MOSUNNY   76  61  59 S8        29.80S
$$

OKZ018>020-024>031-221500-
CENTRAL OKLAHOMA

CITY           SKY/WX    TMP DP  RH WIND       PRES   REMARKS
OKLAHOMA CITY  MOSUNNY   74  66  76 S5        29.80R
OKC/WILEY POST SUNNY     77  68  73 S7        29.80R
STILLWATER     SUNNY     77  67  71 S5        29.79R
GUTHRIE        SUNNY     76  67  73 S8        29.80R
$$

OKZ008-013-054>072-221500-
NORTHEAST OKLAHOMA

CITY           SKY/WX    TMP DP  RH WIND       PRES   REMARKS
TULSA          MOSUNNY   79  73  82 SE13      29.76S
TULSA/JONES    SUNNY     79  69  71 SE9       29.77F
PONCA CITY     SUNNY     77  67  71 S9        29.78S
BARTLESVILLE   SUNNY     78  70  76 VRB7      29.78F
MUSKOGEE       MOSUNNY   79  72  79 E9        29.79S
$$

OKZ032-040>043-046>053-073>077-221500-
SOUTH CENTRAL/SOUTHEAST OKLAHOMA

CITY           SKY/WX    TMP DP  RH WIND       PRES   REMARKS
ARDMORE/DWNTWN PTSUNNY   77  68  73 SE10      29.76F
MCALESTER      MOSUNNY   78  72  81 E9        29.77F
$$




USA.gov is the U.S. government's official web portal to all federal, state and local government web resources and services.